Regional Weather Roundup
Issued by NWS

Home | Current Version | Previous Version | Graphics & Text | Print | Product List | Glossary On
Versions: 1 2 3 4 5 6 7 8 9 10 11 12 13 14 15 16 17 18 19 20 21 22 23 24 25 26 27 28 29 30 31 32 33 34 35 36 37 38 39 40 41 42 43 44 45 46 47 48 49 50
000
ASUS44 KMEG 311000
RWRTN
TENNESSEE HOURLY STATE WEATHER ROUNDUP
NATIONAL WEATHER SERVICE MEMPHIS TN
500 AM CDT THU JUL 31 2014

TNZ002-004-019-021-049-052-054-088>092-311100-
WEST TENNESSEE

CITY           SKY/WX    TMP DP  RH WIND       PRES   REMARKS
MEMPHIS INTL   CLOUDY    73  63  70 CALM      30.07R
NWS MEMPHIS      N/A     69 N/A N/A MISG        N/A
JACKSON        CLOUDY    68  64  87 CALM      30.07S
DYERSBURG      CLOUDY    70  59  68 CALM      30.09R
UNION CITY     CLOUDY    66  66 100 CALM      30.07S
PARIS          PTCLDY    61  59  94 CALM      30.08S
LEXINGTON      MOCLDY    64  63  94 CALM      30.06F
SAVANNAH       CLEAR     66  66 100 CALM      30.07S
$$

TNZ008-025-027-028-033-062-065-066-311100-
NORTH MIDDLE TENNESSEE

CITY           SKY/WX    TMP DP  RH WIND       PRES   REMARKS
NASHVILLE      MOCLDY    62  59  90 CALM      30.09S
CLARKSVILLE    PTCLDY    58  56  93 CALM      30.08S
COOKEVILLE     CLEAR     57  57 100 CALM      30.10S
CROSSVILLE     MOCLDY    64  56  75 CALM      30.13F
$$

TNZ061-075-076-078-094-096-097-311100-
SOUTH MIDDLE TENNESSEE

CITY           SKY/WX    TMP DP  RH WIND       PRES   REMARKS
FAYETTEVILLE   CLEAR     63  59  88 NE12G22   30.08S
TULLAHOMA      CLEAR     63  59  88 CALM      30.10S
WINCHESTER     CLEAR     61  61 100 CALM      30.09S
MCMINNVILLE    CLEAR     61  61 100 CALM      30.10S
COLUMBIA       CLEAR     64  63  94 CALM      30.07S
SHELBYVILLE    CLEAR     61  61 100 CALM      30.10R
$$

TNZ017-018-042-046-047-311100-
NORTHEAST TENNESSEE

CITY           SKY/WX    TMP DP  RH WIND       PRES   REMARKS
TRI CITIES     MOCLDY    57  54  89 CALM      30.14R FOG
ELIZABETHTON   MOSUNNY   55  54  94 CALM        N/A
$$

TNZ012-013-036-069-073-074-311100-
CENTRAL EAST TENNESSEE

CITY           SKY/WX    TMP DP  RH WIND       PRES   REMARKS
KNOXVILLE      CLOUDY    60  58  92 NE3       30.09S
OAK RIDGE      FOG       61  60  97 CALM      30.11S VSB 1/4
GATLINBURG     SUNNY     57  55  94 CALM      30.11S
$$

TNZ083-085-099-311100-
SOUTHEAST TENNESSEE

CITY           SKY/WX    TMP DP  RH WIND       PRES   REMARKS
CHATTANOOGA    CLOUDY    66  60  81 CALM      30.07F
$$

SKY/WX REPORTED AS FAIR MEANS FEW OR NO CLOUDS BELOW
12 THOUSAND FEET.



USA.gov is the U.S. government's official web portal to all federal, state and local government web resources and services.